Regional Weather Roundup
Issued by NWS

Home | Current Version | Previous Version | Text Only | Print | Product List | Glossary Off
Versions: 1 2 3 4 5 6 7 8 9 10 11 12 13 14 15 16 17 18 19 20 21 22 23 24 25 26 27 28 29 30 31 32 33 34 35 36 37 38 39 40 41 42 43 44 45 46 47 48 49 50

000
ASUS43 KFSD 021010
RWRSD

WEATHER ROUNDUP FOR SOUTH DAKOTA
NATIONAL WEATHER SERVICE SIOUX FALLS SD
400 AM CST MON MAR 02 2015

NOTE: "FAIR" INDICATES FEW OR NO CLOUDS BELOW 12,000 FEET WITH NO
SIGNIFICANT WEATHER AND/OR OBSTRUCTIONS TO VISIBILITY.


SDZ001>005-009-010-012>017-021100-
NORTHWEST AND NORTH CENTRAL SOUTH DAKOTA

CITY           SKY/WX    TMP DP  RH WIND       PRES   REMARKS
BUFFALO          N/A     12   5  73 SE13      30.01F WCI  -3
FAITH            N/A     11   6  81 SE15      30.18F WCI  -5
MOBRIDGE       PTCLDY     8   3  80 SE7       30.28F WCI  -3
$$

SDZ012>016-024>037-041>051-057-063-072>074-021100-
SOUTHWEST AND SOUTH CENTRAL SOUTH DAKOTA

CITY           SKY/WX    TMP DP  RH WIND       PRES   REMARKS
RAPID CTY ARPT MOCLDY    16   9  74 S13       30.12F WCI   2
PIERRE         PTCLDY    10   7  87 SE7       30.32F WCI  -1
CUSTER         PTCLDY    13   3  64 VRB3      30.00F
ELLSWORTH AFB  PTCLDY    15   8  73 S13       30.10F WCI   1
PHILIP         MOCLDY     3  -2  79 CALM      30.26F
PINE RIDGE     PTCLDY    22   8  55 S5        30.16F WCI  16
WINNER         FAIR      14   3  61 SE10      30.33F WCI   1
$$

SDZ004>011-016>023-039-040-021100-
NORTHEAST SOUTH DAKOTA

CITY           SKY/WX    TMP DP  RH WIND       PRES   REMARKS
ABERDEEN       MOCLDY    -3  -6  87 S5        30.39F WCI -13
WATERTOWN      PTCLDY    -1  -5  82 CALM      30.38F
SISSETON         N/A      5   0  79 W5        30.39F WCI  -4
$$

SDZ017-020-022-023-036>040-048>070-021100-
SOUTHEAST SOUTH DAKOTA

CITY           SKY/WX    TMP DP  RH WIND       PRES   REMARKS
SIOUX FALLS    PTCLDY     7   3  84 CALM      30.44S
HURON          PTCLDY     6   3  87 S7        30.43F WCI  -6
CHAMBERLAIN    PTCLDY    10   6  85 SE6       30.37F WCI   0
MITCHELL       PTCLDY    11   7  84 S5        30.45F WCI   3
YANKTON        PTCLDY    10   9  92 CALM      30.46F
$$

ABBREVIATIONS USED IN REMARKS
   TC - TEMPERATURE IN CELSIUS
  WCI - WIND CHILL INDEX
   HX - HEAT INDEX
  VSB - VISIBILITY




USA.gov is the U.S. government's official web portal to all federal, state and local government web resources and services.